Theta_e
313 313 312 311 310 309 309 310 310 309 308 307 306 305 305 306 306 307 307 309 311 313 316 314 313 315 316 316 316 315 314 315 315 314 313 310 308 306 307 309 310 310 310 310 310 312 313 314 314 313 314 315 314 316 316 317 316 317 319 318 315 316 317 316 317 315 315 315 315 314 311 311 312 311 309 308 309 310 311 311 311 310 310 311 312 312 311 310
313 313 312 311 310 310 310 311 311 311 310 308 307 306 306 306 306 306 307 308 309 312 315 314 314 315 316 316 317 316 315 314 315 314 312 308 307 307 309 310 310 310 310 310 310 312 313 314 313 313 316 316 315 315 316 316 315 317 319 317 316 317 316 315 315 314 314 314 314 314 312 310 311 311 309 310 312 312 312 313 313 312 312 313 313 312 311 310
313 313 312 311 310 310 310 311 311 312 311 309 307 306 306 306 306 306 306 307 307 310 314 313 315 316 316 316 317 317 316 316 315 314 311 308 308 309 309 311 311 310 310 310 309 310 312 312 312 314 315 316 314 315 316 316 315 316 317 318 318 316 315 313 313 313 313 313 313 314 312 310 310 309 308 310 312 313 313 313 313 313 313 313 313 312 311 310
313 313 312 311 310 311 311 311 312 312 312 310 308 306 306 306 306 306 306 307 307 310 312 313 316 317 316 316 317 316 316 318 316 313 311 310 310 310 311 312 312 311 309 310 310 310 311 312 313 314 316 316 315 314 314 314 315 315 315 317 316 313 314 313 312 312 311 310 312 312 311 311 309 307 308 310 311 313 313 313 312 312 311 311 311 312 311 311
314 313 312 311 311 311 312 311 312 312 312 311 309 307 307 306 306 306 306 307 307 310 311 313 316 317 316 316 316 316 317 317 315 312 312 312 311 310 312 314 314 312 309 311 310 310 312 313 314 315 316 316 316 316 314 312 312 314 315 316 314 312 314 313 311 311 310 309 310 311 311 310 309 308 309 310 311 313 313 312 311 310 310 309 309 310 311 311
314 313 312 311 311 311 312 312 312 312 312 311 309 307 307 306 306 306 307 307 307 310 311 313 317 316 315 315 315 317 318 316 314 312 311 313 314 311 312 314 314 312 310 311 311 312 313 313 315 315 315 316 315 316 314 310 310 314 315 313 312 312 313 312 310 310 309 308 310 311 310 308 309 310 309 309 311 312 312 311 310 309 309 309 309 310 312 311
314 313 312 311 311 311 311 312 312 313 312 311 309 308 307 306 307 307 307 307 308 310 311 314 317 316 316 316 315 317 318 315 313 311 312 314 315 313 314 314 313 312 311 312 312 313 313 313 316 314 315 316 313 314 313 310 309 313 315 312 311 311 311 311 309 309 308 308 310 309 308 308 311 311 307 308 311 311 311 309 308 309 310 310 310 311 311 309
314 313 311 311 311 311 311 312 312 313 312 311 309 309 308 307 307 307 308 308 308 311 312 315 317 316 316 317 318 318 317 315 312 311 312 315 315 315 314 313 313 312 312 312 311 312 313 313 314 312 315 316 312 313 311 310 311 312 314 312 311 310 309 310 308 308 308 307 308 307 308 311 310 309 308 309 311 309 309 308 308 309 310 310 311 310 308 306
314 313 312 311 311 311 311 312 313 313 312 312 309 309 308 308 307 307 308 308 309 311 312 316 317 317 316 317 320 319 316 313 312 312 313 315 315 314 314 313 313 313 312 312 311 313 314 313 313 312 314 314 311 312 311 311 313 312 312 311 310 311 310 309 308 308 307 307 307 307 311 312 308 307 310 310 309 308 309 310 309 309 309 310 309 307 305 304
314 313 311 312 312 311 311 312 312 312 313 312 310 309 308 308 308 308 309 308 310 311 313 316 316 316 316 317 320 318 314 312 312 313 314 314 314 313 313 312 312 312 312 312 312 313 313 313 312 311 313 312 310 311 310 311 312 309 309 310 309 310 310 308 308 308 307 306 306 309 312 311 308 308 311 310 308 309 310 311 309 309 309 308 306 305 304 304
314 313 312 312 312 311 311 312 312 313 313 312 311 309 308 309 308 308 309 310 312 312 314 317 315 316 316 316 318 316 313 312 313 313 313 314 314 313 312 311 311 312 312 312 313 311 311 312 311 311 313 312 310 311 310 309 309 307 308 309 310 311 310 308 309 309 309 308 306 309 311 310 308 310 312 310 309 311 311 310 310 309 308 306 305 304 304 304
314 313 311 311 312 311 311 312 312 312 312 312 312 310 309 309 309 309 309 311 313 313 315 317 315 315 316 316 316 314 313 313 314 313 312 313 313 312 310 310 311 311 311 313 312 310 310 310 310 311 312 311 312 312 310 307 307 307 307 310 312 313 311 310 310 310 310 309 305 307 310 311 311 311 311 310 310 311 310 309 309 308 306 305 304 303 303 303
314 313 311 311 311 311 311 312 312 312 312 312 311 311 311 310 309 309 309 312 313 315 317 317 315 316 317 316 314 313 312 312 314 313 312 312 312 312 310 309 311 311 311 312 311 310 309 309 309 311 310 310 312 311 308 306 307 308 307 309 313 313 312 312 310 310 311 308 306 308 311 312 313 312 310 310 310 310 309 309 308 306 305 304 304 303 302 301
314 313 311 310 310 311 311 312 311 311 311 311 311 312 312 311 310 309 310 312 314 317 319 316 316 316 316 315 312 312 312 313 314 313 311 311 311 312 310 309 310 311 311 311 310 309 309 308 308 310 308 308 309 308 308 308 308 310 309 310 314 312 312 314 311 310 311 308 308 311 312 312 313 312 311 311 310 309 308 307 306 305 304 303 303 302 301 301
314 313 311 310 309 310 311 311 311 310 310 310 311 312 313 311 310 310 311 312 315 318 317 315 315 316 316 314 312 312 313 313 314 313 311 310 311 312 310 308 309 310 310 310 309 308 308 308 309 310 309 307 307 309 312 312 311 312 311 312 316 313 313 315 310 309 311 309 310 312 313 313 313 312 311 311 310 308 308 306 304 303 303 303 302 301 300 300
314 313 311 309 308 309 310 310 310 309 309 309 310 312 313 311 310 310 311 313 316 317 315 315 315 316 317 315 312 313 314 313 313 312 311 310 310 311 309 308 309 309 309 309 308 307 307 308 308 308 309 309 309 312 314 312 313 314 313 314 316 315 314 314 310 308 310 310 310 311 312 313 312 311 311 310 309 308 306 304 303 302 302 301 301 300 300 299
314 313 312 309 308 309 309 309 308 308 308 309 309 311 312 311 311 311 312 313 316 316 314 315 314 315 317 314 313 314 313 313 312 311 310 309 309 309 309 309 309 308 309 308 308 308 308 309 308 308 310 311 311 314 312 310 313 314 315 315 315 314 313 314 312 309 309 310 310 311 312 312 311 311 311 309 308 307 305 303 302 301 301 301 300 300 299 299
315 313 312 310 307 308 308 307 307 306 307 308 309 310 311 311 312 312 312 314 317 317 315 315 314 316 316 313 313 314 312 312 311 310 309 309 309 309 309 309 308 307 310 310 309 310 309 309 311 312 312 312 312 313 313 312 314 314 314 315 315 314 313 313 313 311 309 309 310 311 312 311 310 310 310 308 307 305 304 302 301 300 300 300 300 299 299 299
315 314 313 311 308 307 307 306 305 304 306 308 308 309 309 311 314 311 311 314 317 319 319 315 314 317 316 313 313 313 311 311 311 310 309 308 308 308 307 307 308 310 311 313 312 310 309 310 312 313 312 312 311 311 312 313 312 312 313 313 313 314 314 313 312 311 308 308 309 310 310 310 309 309 308 307 305 305 303 302 301 300 299 299 299 299 299 298
316 314 313 311 308 307 306 304 304 303 305 307 307 309 309 313 317 313 312 312 312 314 316 313 311 314 315 314 313 312 311 311 310 309 309 308 307 308 307 307 312 313 311 313 313 309 307 310 312 311 310 310 310 309 309 310 309 310 312 313 313 314 314 312 311 310 307 307 308 309 309 308 308 308 307 305 303 303 302 301 300 299 299 299 299 299 298 298
315 314 313 312 309 307 305 304 303 303 306 306 305 308 308 310 315 312 310 312 310 307 312 312 309 312 314 313 312 310 310 311 310 309 309 308 307 308 308 309 312 311 311 310 311 309 307 308 311 310 309 308 307 307 307 308 309 310 312 313 313 314 313 311 310 310 307 306 307 307 307 307 308 307 305 302 300 300 301 300 299 298 298 298 298 298 297 297
314 314 313 312 310 307 304 302 303 305 307 304 307 311 310 309 311 307 308 315 313 307 310 311 310 312 312 311 311 309 308 310 310 310 308 307 309 310 309 310 310 310 311 310 310 309 309 308 308 307 307 305 306 306 307 309 310 311 312 313 313 313 312 311 310 309 306 305 305 306 306 307 307 307 304 301 299 298 298 299 298 298 297 298 298 297 296 296
313 313 313 312 310 308 304 302 303 306 306 304 309 310 311 311 309 307 309 315 315 310 311 313 313 315 313 311 309 308 309 309 309 309 308 307 310 310 310 309 309 311 310 309 309 307 306 306 306 305 305 306 307 307 308 310 311 312 312 312 313 311 310 310 309 307 306 305 305 306 306 306 306 306 304 300 298 297 296 297 297 298 298 298 298 297 295 295
313 312 312 311 310 308 304 303 305 306 306 305 307 309 311 310 310 310 311 314 316 313 312 312 313 315 315 310 308 308 309 308 307 307 307 307 308 308 309 308 308 310 310 308 308 307 306 307 305 306 307 308 309 309 310 310 310 312 312 311 311 309 308 308 307 305 305 306 306 305 304 305 306 306 304 300 297 296 295 295 295 296 297 297 296 295 294 294
312 311 311 311 310 307 303 304 307 305 305 307 307 308 309 310 310 310 310 314 316 314 312 312 312 314 312 308 308 308 308 308 307 306 305 305 307 307 307 305 306 309 309 307 307 307 307 305 305 308 309 310 310 309 310 310 309 311 311 308 308 308 307 306 305 306 304 305 306 304 302 304 305 306 304 301 297 296 295 295 295 295 296 295 294 294 294 294
313 311 310 310 310 307 304 307 307 303 307 311 307 306 308 310 310 308 309 315 318 316 315 314 314 313 310 309 309 308 309 308 306 304 303 304 305 305 306 305 305 307 308 307 306 306 306 304 306 310 310 310 310 309 310 309 310 311 309 307 307 307 306 306 307 306 304 304 307 305 302 303 304 306 304 300 297 296 295 294 294 295 295 294 293 293 293 293
313 311 309 309 309 306 304 307 307 304 309 313 307 305 309 311 310 308 311 319 319 316 316 315 313 313 311 308 306 308 312 309 305 304 303 304 304 304 305 305 305 305 305 305 306 307 306 306 309 310 309 310 309 309 309 308 310 311 307 306 306 306 305 306 307 306 305 305 306 306 304 303 305 306 303 299 297 295 294 294 294 294 294 293 293 293 293 293
313 311 308 308 307 304 302 304 305 304 308 311 306 305 310 311 309 310 316 322 319 314 315 313 311 311 310 306 304 307 309 306 308 307 301 303 304 303 305 306 305 305 304 304 306 308 307 308 309 309 309 309 308 309 307 307 311 308 304 304 305 305 305 306 306 305 305 305 303 304 306 305 307 306 301 298 297 295 294 294 294 294 293 293 293 293 293 292
313 310 307 306 304 303 303 303 303 306 308 307 305 308 310 308 308 313 319 321 318 314 312 312 311 310 310 307 306 307 306 305 308 307 301 302 304 304 305 305 304 306 304 304 307 309 306 305 306 307 308 308 307 305 304 305 306 303 302 304 305 305 305 306 305 303 304 304 304 304 305 304 303 304 301 298 296 294 293 293 293 293 293 293 292 292 292 292
313 309 306 304 303 303 304 303 304 306 307 305 307 310 308 308 312 318 323 321 318 314 310 311 313 310 309 311 309 307 307 307 305 303 303 303 304 304 303 302 304 307 306 304 307 308 304 303 304 306 307 306 305 303 302 302 301 301 303 304 304 304 303 302 302 303 303 304 305 303 301 299 298 300 299 296 294 293 293 293 293 293 292 292 292 292 292 292
312 308 304 302 302 302 303 305 306 305 304 306 309 307 307 312 317 322 325 320 317 316 312 313 314 311 309 312 313 309 308 308 304 303 305 304 305 306 304 305 306 306 307 307 307 308 306 306 306 306 304 304 305 305 304 303 303 303 304 302 301 301 301 300 300 301 301 303 304 301 298 296 297 298 296 294 293 293 293 292 292 292 292 292 292 292 292 292
311 306 303 301 301 302 302 305 306 304 304 307 306 306 311 319 320 322 323 318 318 319 316 315 314 313 310 309 313 310 308 308 305 303 305 305 307 307 306 308 307 307 309 308 309 310 308 308 306 305 305 304 306 308 306 304 303 302 302 300 299 299 299 300 300 300 300 302 302 299 297 296 296 298 296 293 293 293 293 292 292 292 292 292 292 292 292 292
309 305 302 301 301 302 302 303 305 304 305 306 306 309 315 321 323 323 322 320 320 317 315 315 313 312 311 311 313 310 307 308 305 302 303 304 306 306 304 304 305 307 308 308 309 309 308 307 305 307 306 303 304 306 305 303 300 300 301 299 298 297 297 299 300 299 299 300 298 296 296 296 297 298 296 293 293 293 293 293 293 292 292 292 292 292 292 291
307 303 302 301 302 302 303 305 306 306 305 305 308 311 318 322 323 321 321 322 318 311 312 314 311 309 310 312 311 307 308 309 305 303 304 304 305 306 306 304 303 306 306 307 308 307 307 308 306 307 307 302 302 302 301 301 299 299 300 299 297 296 297 298 298 297 298 298 298 297 297 297 298 298 295 293 293 293 293 292 293 292 292 292 292 291 291 291
305 302 302 303 303 303 305 306 306 307 306 306 306 311 318 322 320 318 320 320 315 311 310 310 310 311 312 311 307 304 308 309 304 303 304 305 305 306 307 306 304 306 306 307 307 305 306 307 304 302 302 299 298 300 300 300 299 298 298 298 297 298 298 298 298 297 296 297 297 297 297 297 297 296 294 293 293 293 293 292 292 292 292 291 291 291 291 291
303 302 304 305 304 305 306 307 308 307 306 306 306 309 315 319 319 319 318 314 314 315 312 311 312 314 313 311 307 305 305 305 304 304 304 304 305 306 307 306 304 305 306 307 307 305 305 306 303 300 300 296 295 298 299 299 299 298 296 297 297 297 296 296 297 298 295 295 296 296 296 296 296 294 293 293 293 293 292 292 291 291 291 291 291 291 291 291
301 303 305 304 304 306 307 309 311 308 307 306 306 308 313 314 315 318 318 312 310 311 313 314 315 314 315 314 310 307 306 304 304 304 304 305 306 306 305 303 303 303 303 304 305 305 304 305 304 303 301 296 295 297 297 296 298 297 295 296 296 295 295 294 294 295 295 294 295 295 295 295 295 294 293 293 293 292 292 291 291 291 291 290 290 291 290 291
300 305 306 304 305 306 308 309 309 307 308 307 306 309 313 311 308 311 313 311 310 311 312 314 315 315 315 314 311 307 306 307 306 304 305 305 306 306 304 303 302 300 299 300 303 303 303 303 303 301 299 297 296 298 296 295 296 296 296 296 295 294 293 293 292 293 293 293 294 295 294 294 294 294 293 292 292 291 291 291 290 290 290 290 290 290 290 290
302 306 306 307 307 308 309 309 308 309 309 306 305 308 312 310 308 309 310 311 312 312 312 312 314 314 312 312 312 308 305 307 306 304 306 307 306 305 303 303 302 298 297 299 302 303 301 301 301 299 297 297 297 298 297 296 295 294 294 294 294 293 292 292 292 292 292 292 293 294 294 294 294 293 292 292 291 291 291 290 290 290 290 290 290 290 290 290
304 305 306 307 307 310 310 308 308 311 310 307 306 309 310 309 309 309 309 310 311 311 311 313 313 313 312 311 310 308 306 305 304 304 306 306 306 305 302 302 301 298 296 297 300 301 299 300 301 298 296 297 297 298 298 297 295 294 294 294 293 293 292 292 292 291 291 292 292 292 293 294 293 292 291 292 291 291 290 290 290 290 290 290 290 290 290 290
304 304 307 306 308 310 309 308 310 312 312 310 309 309 310 310 311 311 309 308 311 310 309 312 312 312 312 311 309 307 306 304 303 304 305 304 306 306 301 300 300 298 297 297 299 299 298 299 301 298 297 298 297 295 295 296 296 294 294 294 293 292 292 292 292 291 291 291 291 291 292 293 292 292 292 291 291 291 290 290 290 290 290 290 290 290 290 290
304 308 309 306 308 310 309 308 311 313 315 312 308 309 311 311 312 313 310 306 309 309 307 308 311 312 312 311 310 308 307 307 304 304 305 304 306 305 300 298 298 297 298 298 298 298 298 298 299 299 297 296 294 292 292 294 295 294 293 293 293 293 292 291 291 291 291 291 291 290 292 293 292 292 292 291 291 291 290 290 290 290 290 290 290 290 290 290
305 309 309 306 309 310 308 308 311 312 314 311 308 310 311 311 312 312 310 308 308 310 309 308 309 310 310 311 310 308 307 308 307 305 306 305 303 299 296 297 297 297 297 296 295 297 298 297 297 298 296 292 290 291 292 292 293 293 293 293 293 293 292 292 291 291 291 292 292 292 293 293 292 292 292 292 291 291 290 290 290 290 290 290 290 290 289 289
306 307 308 307 308 308 307 310 311 312 312 309 309 309 308 309 311 311 311 310 309 309 310 310 309 308 309 309 309 307 307 309 309 308 306 304 300 295 293 296 296 296 296 296 296 297 297 296 296 297 296 293 292 293 292 291 292 292 292 293 293 292 292 292 292 292 292 292 292 292 292 293 292 293 292 291 291 290 290 290 290 290 290 290 289 289 288 288
307 308 308 306 307 307 307 309 311 312 311 310 310 310 309 308 309 310 312 311 309 309 310 310 308 307 307 306 307 307 307 309 309 307 305 302 298 294 293 294 295 295 296 297 298 298 297 296 296 296 296 296 295 295 294 293 292 292 292 292 292 292 292 292 292 292 292 292 292 292 292 292 292 292 291 290 290 290 289 290 290 290 290 289 289 288 288 287
311 313 309 305 306 309 308 307 308 310 311 311 311 311 311 310 309 308 310 310 309 308 308 308 306 305 306 306 307 306 305 306 306 304 303 300 297 296 295 294 295 296 297 297 299 299 296 295 295 295 295 295 295 294 293 292 292 292 292 292 292 292 292 292 292 291 292 292 292 292 292 291 291 291 290 290 290 289 289 289 290 290 289 289 288 287 287 287
313 314 311 308 309 310 310 308 307 308 310 311 312 312 312 312 310 308 307 308 308 307 307 305 304 306 306 306 307 306 304 305 303 301 301 300 297 296 295 294 295 296 297 297 297 297 296 295 295 295 295 294 294 293 292 292 292 292 292 292 292 292 293 293 292 291 291 292 292 292 291 291 291 290 290 290 289 289 289 289 290 289 288 288 287 287 286 286
312 312 310 311 314 314 312 310 308 308 309 309 310 312 312 312 312 310 307 306 305 305 307 306 304 306 307 306 307 305 303 303 302 300 301 300 297 296 295 294 294 296 296 295 295 295 295 295 295 295 295 294 293 293 293 292 292 292 292 292 292 292 293 293 292 291 291 291 292 291 291 291 290 290 290 290 289 289 289 289 289 289 287 287 286 286 285 284
311 310 308 309 314 316 314 312 309 308 309 309 309 310 311 311 312 311 308 305 303 303 306 308 306 304 305 306 306 306 304 304 304 301 301 300 298 297 297 295 294 295 295 293 294 294 294 294 294 293 294 293 292 292 292 292 292 292 292 292 292 292 292 292 292 291 291 291 291 291 290 290 290 290 290 289 289 290 289 289 289 287 287 286 286 285 284 283
311 311 310 308 309 312 312 312 310 309 310 310 309 309 309 310 311 310 308 306 307 304 303 307 307 304 304 305 305 306 304 305 305 302 300 301 299 297 298 297 295 295 294 293 293 293 294 295 294 293 294 294 292 292 292 292 292 292 292 292 292 291 292 292 292 291 291 291 291 290 290 290 290 290 290 289 290 290 289 288 287 286 286 286 285 283 282 281
311 310 309 309 310 309 310 310 310 312 312 311 310 310 309 310 310 310 308 307 308 306 303 304 307 304 303 303 303 305 304 304 306 303 301 301 301 299 299 298 297 295 294 294 294 294 294 294 293 292 293 293 292 292 292 292 292 291 291 291 291 292 292 291 291 291 290 290 289 289 289 290 290 290 290 289 290 289 288 288 286 285 286 285 284 282 281 280
310 307 306 310 314 313 311 311 311 312 314 313 311 311 311 310 309 309 309 308 307 306 303 304 305 304 302 302 302 303 303 301 300 299 298 298 299 299 298 297 298 297 295 294 294 293 294 294 292 292 292 293 292 291 291 291 291 291 292 292 291 291 291 290 290 290 290 289 289 289 290 290 289 289 289 289 289 288 288 287 285 285 285 284 282 280 280 279
Wind_Speed
16 18 20 22 23 25 25 26 27 28 29 30 31 32 33 33 33 32 31 29 25 21 19 21 19 12 10 8 2 4 8 16 21 24 17 10 14 15 16 16 16 16 15 13 14 11 3 3 8 5 0 1 1 0 0 1 1 2 2 2 1 1 1 2 1 1 4 8 10 5 2 5 7 4 4 4 6 7 9 8 7 8 9 14 17 18 20 22
16 18 20 22 23 24 25 26 27 28 28 30 31 32 32 32 32 31 31 30 28 24 21 22 20 12 10 7 1 6 4 8 16 19 15 13 15 15 16 16 16 16 14 12 11 10 6 6 7 5 2 0 1 1 1 0 1 2 1 2 1 2 1 1 1 1 3 8 14 13 4 3 6 5 5 6 10 8 8 8 6 8 10 11 13 12 12 14
16 19 20 22 23 24 25 25 26 27 28 29 30 31 31 31 32 31 31 30 29 26 23 24 20 12 10 5 2 7 7 2 9 11 14 16 15 15 16 15 15 14 12 10 8 7 5 3 4 4 3 1 1 0 1 0 1 1 1 3 1 2 0 1 2 1 2 6 13 14 6 5 4 3 3 6 12 9 7 10 11 13 16 18 19 15 13 13
16 19 20 22 23 23 24 25 26 27 27 28 30 31 30 31 31 31 30 29 28 25 24 25 19 12 8 4 2 7 8 1 5 7 14 16 15 15 14 13 14 13 10 9 6 6 4 2 3 4 2 2 1 1 1 2 1 1 2 3 4 2 1 2 3 1 0 3 9 14 10 8 3 2 3 6 8 7 9 12 12 13 14 16 17 19 19 17
17 19 20 22 22 23 24 25 26 26 27 28 29 30 30 30 31 31 30 29 28 24 26 25 17 9 7 4 3 9 6 1 4 10 15 16 14 13 12 13 14 11 9 8 6 6 4 3 3 2 1 2 0 1 1 2 1 1 3 3 2 2 2 3 3 1 1 2 7 12 10 7 4 2 3 5 5 6 9 11 12 12 12 13 13 14 15 15
17 18 20 21 22 23 24 25 26 26 28 28 29 30 30 31 31 31 29 29 27 24 26 24 14 7 10 9 7 7 1 0 6 12 13 15 14 12 12 13 13 10 7 7 7 5 4 4 3 1 2 1 1 2 1 2 1 3 2 1 1 3 1 2 3 2 1 3 8 10 6 5 7 4 1 5 7 6 8 11 11 10 11 11 11 12 11 12
16 18 19 21 21 23 24 25 26 27 28 28 29 29 30 31 31 30 29 29 26 23 26 21 10 5 9 12 11 7 4 3 8 12 12 16 14 11 12 11 10 8 6 7 8 6 4 5 4 1 2 1 0 1 2 1 3 4 2 1 1 4 2 2 1 2 3 6 9 8 8 8 8 3 1 5 6 5 7 8 8 9 11 11 11 13 14 15
17 18 19 20 21 23 23 25 26 27 28 29 30 29 30 31 31 30 28 29 25 23 25 18 8 3 3 5 6 6 5 3 10 11 12 16 13 12 11 8 9 8 6 8 8 5 3 4 3 1 2 1 0 2 2 3 4 4 3 3 2 2 3 3 2 4 5 7 7 5 10 10 3 1 3 2 4 5 4 4 5 8 10 11 13 16 16 17
17 18 19 20 22 23 24 25 25 27 28 29 30 29 30 31 30 29 27 28 24 22 24 14 7 3 1 2 2 2 3 5 10 12 14 14 11 10 9 8 9 8 6 7 7 5 3 2 2 1 3 1 1 2 1 3 1 2 5 5 7 6 2 3 3 5 5 3 3 2 11 9 5 1 4 4 7 4 5 5 5 7 10 12 13 15 17 18
16 18 19 20 22 23 24 25 25 27 27 29 30 29 31 31 30 28 27 28 23 22 21 9 7 5 1 1 1 2 2 4 8 12 14 13 9 7 8 10 10 8 5 5 6 6 3 1 1 1 2 1 1 2 1 2 1 1 7 8 11 10 4 2 3 4 3 2 3 2 13 11 4 2 1 7 5 6 12 11 7 9 11 12 14 15 16 18
17 18 19 20 22 23 24 25 25 26 27 29 29 29 30 31 30 27 27 25 21 23 17 5 9 11 9 4 3 4 1 3 8 12 14 11 8 7 11 11 9 7 4 3 5 4 2 1 2 1 1 0 1 2 2 1 2 3 7 9 12 8 2 5 4 2 2 2 3 5 13 10 1 1 4 7 8 12 17 14 12 12 12 13 16 15 15 17
17 18 19 21 22 24 25 25 26 26 27 29 28 28 29 30 28 26 25 22 22 23 11 4 6 8 11 8 5 4 1 4 9 12 13 11 8 8 11 11 8 6 4 2 3 2 3 0 3 2 1 1 2 2 1 1 3 2 4 7 11 6 4 8 6 2 2 3 4 6 8 5 1 2 8 9 12 13 14 12 14 13 12 13 14 14 14 17
17 18 19 20 22 24 24 25 26 26 27 28 28 27 28 29 26 25 23 20 23 19 6 3 0 2 3 4 3 1 1 5 8 10 12 10 8 6 9 11 8 6 4 2 2 2 2 0 2 2 1 2 3 2 0 1 2 2 0 2 7 7 2 7 7 5 2 5 5 4 5 3 3 5 7 6 9 12 12 11 12 11 11 12 12 13 14 17
16 18 19 20 22 23 24 25 25 26 27 28 28 26 27 27 23 24 20 19 22 13 4 5 2 3 2 2 2 1 1 4 7 11 12 12 8 2 7 10 7 5 3 3 3 2 2 1 1 1 1 2 3 2 4 2 0 2 1 2 2 4 4 4 7 7 5 5 2 8 5 4 7 6 5 5 4 9 10 12 12 10 11 10 12 13 13 16
17 18 19 20 22 23 24 25 25 27 27 28 27 25 27 24 21 22 16 18 20 8 4 5 5 4 4 3 2 0 2 2 6 12 12 14 9 2 8 8 5 3 3 4 3 4 4 1 1 1 1 1 3 4 5 2 1 1 2 2 3 3 8 9 6 8 8 2 5 8 4 5 6 7 12 11 5 5 7 13 12 12 12 12 12 12 12 14
17 18 19 20 22 23 24 24 26 27 26 28 26 24 25 20 21 20 13 19 17 6 4 4 4 2 3 3 1 1 3 3 7 10 10 14 10 5 9 5 5 3 2 4 3 4 5 2 1 2 2 1 3 4 5 3 0 2 3 4 6 6 9 9 2 7 10 8 5 4 4 6 6 9 15 13 8 7 12 13 12 13 13 12 11 11 12 13
17 18 19 20 21 23 24 24 26 27 27 28 25 25 21 15 20 16 10 20 14 6 7 5 4 2 2 1 1 1 3 4 7 9 9 12 8 6 8 2 3 2 3 3 1 1 3 2 1 1 0 2 3 4 5 5 4 3 5 5 6 7 8 9 3 4 10 9 6 3 2 5 9 12 14 11 8 12 14 12 13 13 12 12 11 11 12 13
17 18 19 20 21 23 23 25 26 27 28 26 24 24 16 13 19 10 9 22 10 3 5 5 3 1 2 2 1 2 6 5 5 8 10 10 7 3 5 3 1 1 3 1 1 2 3 0 1 2 0 3 5 5 5 5 6 7 7 7 6 6 7 11 9 5 11 10 9 7 1 5 11 11 12 10 12 15 14 12 12 13 12 12 11 12 12 14
18 18 19 20 21 22 23 25 26 27 28 25 24 22 13 12 13 3 11 20 7 1 2 3 3 2 1 1 2 6 7 5 4 7 10 10 7 2 2 4 2 1 0 2 3 5 4 1 0 1 3 5 6 4 3 5 6 8 8 7 7 8 6 9 12 7 11 13 9 7 7 9 11 10 10 12 15 14 13 12 11 11 11 11 11 11 12 14
18 18 18 19 21 22 23 24 25 26 26 25 25 18 8 8 6 1 10 12 3 1 4 1 1 3 2 1 4 8 5 1 1 6 12 11 6 2 1 3 3 1 4 2 4 3 1 2 1 2 4 6 5 3 4 5 4 6 7 6 8 10 6 8 12 6 10 13 9 9 14 10 9 11 9 13 14 14 13 12 11 10 9 9 10 11 13 13
18 18 18 19 20 21 23 23 24 24 22 23 21 10 3 4 3 2 7 5 2 1 2 1 2 5 5 3 5 8 3 1 2 6 13 11 3 2 1 3 2 4 4 2 4 1 2 2 1 1 3 4 4 2 3 4 4 5 5 7 8 8 8 11 11 5 9 11 10 14 17 9 8 11 9 15 15 14 12 11 11 10 10 9 10 12 13 13
17 17 17 18 19 21 21 22 22 20 18 19 16 10 4 3 1 1 2 4 2 0 1 2 2 5 5 3 3 5 1 1 3 4 13 11 3 1 3 3 3 4 3 2 3 2 3 1 2 2 1 1 0 1 2 3 4 4 4 6 7 6 10 9 5 2 9 8 11 16 15 9 8 6 12 15 14 13 11 11 10 10 11 10 11 13 15 16
17 17 17 17 18 20 20 20 19 16 16 16 14 9 3 3 2 1 1 4 4 1 0 1 1 2 2 1 3 3 1 1 2 3 13 11 2 2 2 2 2 1 1 3 3 3 5 2 3 2 1 2 1 1 1 4 3 2 4 4 6 7 9 5 1 7 10 6 8 13 13 9 2 7 13 13 11 12 11 11 10 10 11 12 12 13 17 19
16 17 17 17 18 18 19 18 13 11 13 14 13 8 3 3 3 2 1 3 3 1 1 0 1 2 1 2 2 2 1 1 1 4 12 10 1 0 1 2 1 2 1 2 1 3 6 4 3 2 1 1 2 2 2 4 3 1 2 2 6 8 8 8 10 15 12 4 4 12 12 4 5 8 8 8 9 10 11 13 14 12 11 12 13 15 17 18
16 17 16 16 17 17 18 14 8 10 10 8 8 6 3 2 5 4 1 2 2 1 1 1 2 1 2 2 2 2 1 1 1 3 8 8 2 1 1 1 2 1 2 1 1 5 5 2 2 1 2 3 4 4 3 3 5 1 2 1 6 9 10 12 13 14 11 4 6 12 10 2 5 6 9 7 7 10 12 15 15 14 13 13 14 15 17 18
16 16 16 16 16 17 15 7 5 9 7 5 4 3 3 2 6 6 1 1 2 1 1 2 1 2 3 1 3 1 3 2 1 3 5 5 2 1 1 1 1 1 2 1 2 3 1 2 1 1 3 4 4 3 1 1 5 3 1 2 6 8 10 13 13 9 9 9 5 8 6 7 5 3 10 8 8 10 11 13 13 12 12 13 14 15 17 19
16 16 16 16 16 16 10 2 4 7 3 1 3 2 2 1 8 7 1 2 1 1 1 0 0 1 1 1 1 1 1 0 1 1 4 5 3 1 1 1 1 0 1 1 3 1 2 2 2 3 3 4 4 2 2 1 3 2 1 3 6 9 11 12 11 7 7 10 7 2 6 8 7 2 9 7 7 9 12 13 13 13 14 16 17 18 20 20
16 16 16 15 16 14 7 2 4 3 1 2 3 2 2 4 9 5 2 3 1 1 0 0 1 1 0 1 1 0 1 2 1 0 3 5 3 1 2 1 2 1 2 3 4 1 2 1 3 3 2 2 2 1 3 1 2 2 4 4 6 7 10 10 9 9 7 6 7 4 4 5 6 2 7 6 7 10 13 13 14 14 16 18 19 20 21 21
16 16 15 15 14 11 6 3 3 0 1 2 1 1 3 7 7 2 1 2 1 1 1 1 2 1 1 1 1 2 1 0 1 2 2 3 4 2 1 0 2 2 2 3 5 1 2 2 2 1 3 1 2 3 3 1 0 4 5 5 6 7 9 8 7 8 6 4 8 4 2 3 6 2 1 4 6 8 10 11 12 14 16 18 20 22 23 22
16 15 14 13 11 8 6 4 1 1 1 2 1 3 6 6 2 2 1 2 0 1 1 0 1 1 2 3 1 1 0 1 1 3 2 1 3 5 2 0 1 2 1 1 3 1 2 1 1 1 1 1 5 4 2 2 2 5 4 4 7 7 8 7 5 4 3 4 5 1 4 3 5 2 1 4 4 6 8 10 12 15 18 20 21 22 22 21
15 15 13 12 9 6 5 2 2 1 1 1 2 4 4 2 0 2 3 1 1 0 1 0 1 1 2 1 2 0 1 1 2 2 1 1 1 3 2 2 1 2 2 2 3 1 1 2 1 1 1 1 3 2 2 2 4 3 3 7 8 6 5 5 3 1 2 3 2 6 3 4 7 1 5 5 5 7 9 11 14 18 21 21 20 20 20 19
15 14 12 10 7 5 4 3 2 1 0 2 2 2 2 1 2 4 2 0 0 1 1 1 0 1 3 1 2 0 1 1 1 1 1 1 1 1 1 2 1 2 4 2 1 1 1 3 1 2 1 0 2 2 2 3 1 3 5 6 6 6 5 4 3 2 5 4 6 5 4 6 9 2 7 7 6 8 10 12 15 18 20 20 19 19 18 17
14 13 12 10 6 4 4 5 4 1 2 3 1 1 1 1 3 3 1 1 0 1 1 1 1 1 1 1 3 1 0 2 1 2 1 1 1 1 2 2 1 3 3 0 0 2 1 2 1 2 1 1 2 2 1 1 4 5 3 3 4 5 6 7 6 5 6 4 5 2 4 6 9 2 8 6 6 7 11 13 13 14 17 18 19 19 18 18
13 12 11 8 6 5 4 5 4 3 3 2 1 1 1 3 4 0 2 3 1 1 2 2 1 1 2 3 2 1 2 2 2 1 1 2 3 3 3 4 3 1 1 1 1 2 3 2 2 2 1 1 1 2 2 1 3 4 3 1 2 2 5 7 5 5 8 9 6 4 3 4 5 3 9 4 4 7 12 13 12 13 16 18 18 18 19 20
11 10 9 7 7 5 4 7 6 6 4 2 1 2 4 5 3 1 2 2 1 0 1 1 1 1 3 3 1 1 4 2 2 1 3 3 4 3 3 4 4 3 2 2 1 1 4 3 3 3 1 2 1 1 2 1 2 3 2 2 3 1 4 5 3 1 5 11 8 4 4 3 1 7 8 2 7 12 14 13 14 16 18 19 18 18 19 19
10 9 8 7 9 6 7 9 8 8 5 2 2 5 6 4 2 2 2 1 1 1 1 1 2 2 4 2 1 1 2 2 0 1 3 3 4 3 2 2 3 3 2 2 1 2 3 1 4 2 2 5 2 1 2 3 1 2 1 2 0 2 1 4 3 1 2 8 7 3 5 4 1 6 5 4 11 15 14 14 17 19 21 21 19 19 19 21
8 6 6 8 8 7 10 10 9 9 4 2 4 7 5 3 3 3 2 2 0 2 1 3 2 3 4 2 2 3 3 2 1 1 2 2 2 3 4 2 2 3 2 2 1 1 1 1 3 3 4 4 3 3 7 5 3 1 2 1 2 3 3 1 2 2 4 8 6 6 9 8 4 1 2 6 14 15 16 18 21 23 24 23 21 22 23 24
5 4 5 8 8 9 12 11 11 8 2 2 7 8 4 3 4 3 4 3 1 2 3 4 3 3 3 4 2 4 4 3 3 2 2 3 2 3 6 3 3 2 1 2 0 1 1 2 2 1 4 4 2 1 6 4 3 1 1 1 1 2 2 3 1 2 6 7 7 9 10 8 5 1 3 10 15 16 19 22 24 25 24 23 23 24 26 27
3 2 3 5 8 11 13 12 9 4 1 4 8 7 3 3 3 2 4 4 2 2 3 5 5 3 3 3 1 3 5 4 3 2 2 3 2 3 5 3 3 2 1 0 1 0 0 2 1 2 2 3 1 2 3 2 3 2 1 2 0 1 2 2 0 1 5 7 7 9 10 5 1 2 6 12 14 16 20 21 22 24 24 23 22 23 24 26
2 1 1 5 10 12 13 10 5 2 3 5 6 4 2 2 3 3 4 4 2 3 4 4 6 5 4 3 2 3 4 4 3 3 3 2 1 3 5 3 5 5 1 1 1 0 1 2 2 3 2 2 3 2 2 3 3 3 4 4 2 1 2 2 1 2 3 6 5 7 9 5 3 3 7 11 12 15 20 21 20 21 23 24 23 23 24 25
2 1 1 6 12 14 12 6 2 2 3 3 3 3 1 2 3 3 3 3 2 2 2 2 5 5 4 3 4 3 3 3 4 4 4 4 3 3 4 3 6 7 3 3 2 1 2 2 2 4 3 4 2 2 2 4 4 5 5 5 4 4 2 3 4 2 2 4 4 5 11 8 1 1 4 7 12 16 19 21 20 20 24 25 24 25 27 27
2 2 3 10 16 15 9 3 1 1 2 3 2 2 2 2 3 4 3 2 2 2 1 2 4 4 4 5 4 4 4 3 5 4 4 5 4 1 2 3 4 5 3 3 2 0 1 1 2 4 3 1 2 4 3 4 4 4 3 3 4 4 4 3 5 2 2 5 5 5 11 8 1 2 4 10 15 18 19 20 20 20 23 24 25 27 27 28
3 2 4 12 18 14 5 4 2 1 3 2 2 2 2 2 3 4 4 4 3 3 3 3 4 5 6 6 3 4 4 3 6 6 4 4 2 1 3 5 5 4 2 2 3 2 2 2 3 3 1 3 2 2 3 2 2 4 3 4 5 4 4 4 5 4 3 6 6 6 11 7 4 4 7 13 16 18 18 19 21 21 21 23 27 27 26 27
3 2 3 9 15 11 5 6 5 4 5 3 4 4 2 2 5 6 6 7 6 5 4 4 5 7 6 4 3 5 6 5 6 6 3 3 2 2 3 4 3 3 2 1 3 3 2 2 3 2 2 1 1 2 2 0 2 3 3 6 7 6 4 3 4 4 5 8 9 8 9 8 2 5 12 16 17 20 19 19 21 21 20 23 24 24 25 27
2 2 2 5 10 9 4 4 5 6 7 7 8 8 5 3 6 7 8 8 6 5 4 2 2 4 3 3 2 4 7 6 5 2 2 3 2 2 2 1 1 2 1 1 1 1 2 2 3 3 5 5 4 2 2 3 4 4 4 7 8 8 8 5 4 5 6 6 9 10 9 11 12 14 17 18 18 21 20 21 22 20 20 23 22 22 24 24
2 2 1 3 5 7 4 1 2 6 8 8 7 8 10 9 5 4 6 7 5 5 4 1 2 2 2 3 4 5 7 6 2 1 3 4 3 1 2 2 2 1 1 2 2 1 1 2 5 8 9 7 6 2 4 4 4 6 6 8 10 10 10 7 4 6 7 6 8 12 11 14 18 18 19 19 19 19 20 23 24 21 21 24 23 23 23 23
2 3 4 4 3 7 6 4 4 6 7 7 5 6 11 13 8 4 6 6 5 5 3 1 4 6 6 7 6 5 6 5 2 2 3 4 3 1 2 2 1 2 3 2 2 2 2 2 7 11 11 8 6 3 3 4 7 9 9 9 11 11 10 9 7 10 9 7 10 10 9 14 18 18 20 20 18 18 20 23 23 20 21 24 23 24 25 25
4 2 4 6 4 7 8 8 9 10 11 9 8 8 10 13 13 10 7 3 1 4 6 4 7 13 13 11 7 4 5 5 4 3 4 4 4 3 2 1 1 2 3 3 1 2 2 3 5 6 9 7 4 6 5 5 8 10 11 13 12 11 11 11 12 15 12 10 12 13 15 18 19 18 19 18 16 18 20 22 21 19 20 24 25 25 26 26
4 2 1 3 5 6 7 9 13 14 16 13 10 12 13 17 18 11 4 4 2 7 11 11 10 14 14 11 8 7 8 7 5 4 5 4 5 5 3 2 2 3 4 4 2 1 1 2 3 3 6 5 6 9 9 8 9 10 13 16 14 12 13 12 13 16 16 16 17 17 21 22 17 15 16 15 15 17 17 18 20 20 21 24 24 25 25 26
5 4 3 1 4 5 3 6 10 10 13 14 13 14 14 19 21 11 4 7 10 7 9 14 13 12 12 11 11 12 12 10 6 6 8 6 5 5 4 3 4 5 4 4 3 2 2 1 3 1 4 5 8 11 10 8 10 11 14 17 15 13 14 13 12 13 13 15 17 17 19 17 11 11 14 15 16 15 15 17 19 20 21 22 23 23 25 25
13 9 7 3 5 7 5 5 7 7 11 13 14 15 15 19 21 13 6 9 11 7 11 17 14 7 6 10 14 14 9 7 4 5 9 8 6 5 4 4 7 8 5 4 4 4 4 2 2 2 4 5 7 8 8 5 6 11 15 19 16 12 11 9 8 9 10 12 14 14 13 11 9 12 15 17 18 17 17 17 17 19 20 22 22 23 24 24
15 7 7 5 6 10 8 6 7 9 11 12 14 17 17 16 15 12 8 6 5 5 8 12 10 6 5 12 16 11 5 7 5 3 4 4 3 3 3 5 8 8 8 6 4 4 5 3 2 2 3 2 5 5 3 2 4 8 10 11 10 8 8 8 7 9 12 12 11 9 10 10 12 14 16 18 20 19 17 16 16 18 20 20 21 22 23 23
Wind_Direction
12 11 10 10 10 11 11 10 10 9 9 9 8 7 5 5 8 7 6 9 12 12 6 4 3 359 357 4 42 130 83 61 56 50 48 21 1 4 4 4 4 2 0 5 13 15 29 21 18 21 219 192 352 43 31 15 345 270 230 253 249 171 123 149 174 33 327 323 326 326 53 346 337 352 339 294 251 256 288 293 266 252 245 251 260 276 292 300
9 8 7 7 8 8 8 8 7 7 6 7 6 4 3 2 4 4 3 5 8 8 6 1 3 2 354 1 119 174 149 55 52 50 33 7 4 6 4 6 5 2 2 7 15 16 17 15 3 347 333 242 325 174 197 41 292 271 224 274 253 123 79 121 105 66 321 323 318 319 11 5 335 349 345 316 307 299 304 333 347 330 329 311 292 279 292 310
6 5 5 5 5 5 6 5 5 4 4 4 4 2 1 360 0 1 0 2 4 5 4 1 4 1 355 19 147 178 183 58 47 36 7 359 3 5 3 8 7 4 6 3 7 15 20 15 336 330 333 309 44 203 239 72 257 271 242 275 72 99 74 202 224 216 315 318 307 313 338 333 354 24 317 307 311 320 1 10 7 353 350 344 334 324 322 321
3 2 3 3 3 3 2 3 2 2 1 1 2 360 359 358 358 359 358 359 2 4 2 1 5 2 9 40 165 169 172 111 46 357 351 359 0 3 4 8 7 5 5 355 354 6 16 13 348 7 335 273 88 213 252 16 338 153 236 301 75 113 288 148 200 268 328 287 297 303 308 317 7 107 280 300 313 350 23 10 3 349 340 335 330 326 328 328
360 360 1 1 1 0 360 360 360 359 359 359 359 358 356 357 357 357 356 356 359 3 1 0 6 14 31 35 167 157 172 216 27 348 351 359 359 3 3 3 360 1 3 358 359 1 15 8 351 33 337 277 349 235 153 48 342 213 229 302 81 157 320 103 131 75 135 260 290 293 304 330 328 255 270 294 315 359 7 1 357 342 331 326 318 312 316 327
357 358 359 360 359 357 357 358 357 357 358 357 357 356 355 355 356 355 353 353 358 2 360 359 7 42 59 63 120 136 154 97 6 347 353 356 355 359 358 356 356 1 6 10 14 1 9 350 323 334 314 257 334 332 48 77 271 270 223 257 199 183 282 83 115 137 172 295 285 289 324 338 296 291 315 286 282 311 342 357 352 334 321 312 304 305 319 349
354 356 357 358 357 355 355 355 356 356 356 356 355 355 354 353 354 353 350 351 356 2 360 357 10 72 80 74 92 86 71 75 357 344 351 349 347 351 352 355 357 3 6 12 12 357 354 340 340 336 288 236 82 329 360 310 230 255 255 277 229 164 220 273 135 186 231 266 271 298 323 299 289 310 317 280 282 314 345 359 343 321 321 320 321 333 356 21
352 354 355 356 355 353 353 355 355 354 354 355 354 354 353 351 353 351 349 351 355 2 359 355 11 64 119 81 91 77 70 22 344 343 340 340 344 349 351 360 5 14 28 29 16 345 333 343 360 284 278 32 182 277 344 297 216 215 275 321 304 178 194 245 250 254 240 250 268 304 303 295 336 346 250 289 28 33 2 346 331 323 333 340 347 2 24 37
350 351 353 354 353 350 351 354 354 353 353 353 353 353 352 350 350 349 348 350 354 1 358 354 12 12 153 89 133 94 48 335 339 345 338 341 349 350 355 13 18 24 40 35 16 345 334 351 7 292 303 21 249 277 339 300 224 196 292 314 301 295 293 256 246 237 224 247 258 291 299 309 58 248 217 87 56 34 323 336 354 348 353 358 13 32 42 42
348 348 350 353 351 348 349 353 354 352 352 352 352 352 350 348 347 347 348 349 352 358 355 360 23 17 117 131 164 112 25 331 350 355 351 355 355 352 7 22 28 34 44 23 13 13 6 311 336 327 290 259 226 267 243 283 8 350 300 305 288 288 304 243 169 169 179 202 203 281 309 317 37 289 133 80 37 355 341 354 21 15 16 29 46 51 46 43
345 346 348 351 349 346 348 352 353 352 351 351 351 351 349 346 345 345 347 348 351 352 353 40 68 64 72 77 100 93 63 343 5 6 3 3 4 9 16 27 39 40 44 19 20 29 6 256 198 207 273 232 210 239 203 274 346 335 312 307 285 275 190 163 129 133 158 141 207 266 305 314 12 300 67 47 3 357 346 358 33 38 45 57 60 54 46 44
341 342 346 349 347 344 346 350 352 351 350 350 349 350 348 343 342 343 346 348 347 348 356 90 93 76 65 64 72 87 120 9 11 12 7 5 11 14 16 28 46 43 36 22 30 18 353 188 204 244 326 316 289 279 160 12 325 315 324 307 300 311 153 144 90 44 140 124 203 242 295 316 109 37 51 25 357 349 340 11 50 59 65 64 59 54 49 42
338 340 344 346 345 343 345 349 351 350 350 349 348 349 347 342 338 341 346 346 346 351 12 35 344 198 40 67 78 96 147 10 10 13 13 13 10 2 10 27 51 49 41 53 46 20 12 111 232 285 350 286 314 353 228 265 292 283 339 274 315 340 155 134 82 22 50 143 192 277 318 346 5 43 58 17 350 337 344 43 71 73 67 61 58 55 50 40
336 338 341 345 344 341 345 349 349 349 348 348 347 347 346 340 335 340 345 344 347 358 29 16 84 151 62 103 154 101 20 355 2 7 12 15 13 353 359 19 54 46 46 77 54 42 45 86 192 148 83 302 313 316 262 231 208 288 265 186 360 353 313 23 61 36 48 155 253 338 333 327 340 8 11 346 342 328 358 71 84 69 65 60 56 52 47 40
334 336 339 343 342 340 344 348 348 347 347 347 346 346 345 336 331 338 342 345 350 7 38 42 106 134 99 112 196 120 28 355 356 358 0 4 8 358 341 4 69 54 60 78 74 78 58 81 167 295 346 282 284 297 276 218 141 323 335 309 13 356 311 340 55 69 44 9 342 356 337 321 325 335 337 337 335 333 42 83 77 64 65 58 54 49 41 35
332 334 337 340 341 340 343 347 346 345 344 345 345 344 342 333 329 334 337 345 354 27 40 65 98 112 128 103 178 143 22 4 353 349 346 351 354 345 339 2 85 55 96 86 99 98 44 50 106 320 310 326 312 318 304 274 208 48 18 333 335 334 315 327 71 89 33 357 359 16 332 317 304 317 325 328 351 45 81 81 68 67 64 55 53 45 36 30
329 331 335 339 340 340 342 345 345 343 343 344 344 343 342 332 327 324 331 347 358 69 63 83 89 83 126 52 156 112 360 334 350 348 338 342 342 344 345 8 88 59 129 93 83 138 11 46 125 283 217 24 349 330 322 320 329 344 354 329 313 315 309 315 319 71 25 354 325 309 277 304 305 313 318 332 30 78 89 73 67 68 60 57 48 37 35 28
327 329 334 338 338 339 341 343 344 343 343 343 344 343 340 333 327 314 340 349 351 117 76 76 53 124 133 44 112 355 325 300 335 351 343 338 333 343 353 360 128 160 175 182 6 360 345 57 204 275 343 16 13 9 350 334 323 312 322 318 306 306 292 300 307 357 8 342 314 311 311 325 315 314 331 11 66 86 83 73 71 65 56 52 40 34 34 23
325 328 332 336 336 339 340 342 344 344 342 344 349 346 342 344 334 313 359 356 4 184 338 28 356 270 281 19 331 334 320 291 311 349 351 339 324 298 355 350 207 196 335 258 359 19 341 312 215 324 350 354 6 14 334 316 311 301 305 299 295 303 286 288 302 337 358 335 322 334 335 332 324 330 8 56 77 74 72 74 69 61 55 44 36 34 25 18
325 327 331 334 335 338 341 343 344 345 346 347 352 352 351 356 344 316 356 357 64 28 319 335 328 268 301 343 326 339 336 273 299 355 355 342 318 213 255 321 246 28 47 317 327 23 323 319 18 348 344 340 339 318 294 299 291 287 294 287 292 303 293 294 302 332 10 339 326 335 329 332 334 344 40 83 74 62 64 69 66 58 52 42 39 32 20 16
326 326 330 333 334 337 342 343 343 348 352 352 1 17 37 10 351 315 339 333 133 60 308 298 274 272 291 291 328 352 11 198 248 345 356 346 298 212 329 350 329 360 38 260 275 212 273 307 108 34 334 327 323 285 274 285 276 282 299 303 303 306 304 299 289 317 13 342 320 329 329 338 337 340 68 88 69 65 62 62 64 50 44 40 35 27 14 8
326 326 329 332 335 338 341 343 344 349 354 1 27 66 84 57 55 248 295 297 292 109 277 294 269 273 287 280 341 2 15 253 251 333 357 346 316 354 354 30 32 350 358 303 284 313 321 323 103 48 356 192 165 180 255 288 290 302 318 307 303 320 320 299 238 355 359 329 318 331 327 324 329 2 90 88 75 77 67 65 65 44 41 34 25 18 5 359
326 326 328 331 335 337 341 344 343 349 3 21 54 79 88 119 135 153 185 280 295 282 221 272 264 276 294 61 36 5 355 299 266 358 356 344 353 33 350 48 56 251 321 1 4 333 315 347 78 76 180 192 203 137 267 294 292 333 346 315 307 336 335 310 241 331 323 289 309 326 312 302 328 90 89 84 86 82 67 65 60 46 44 32 20 11 1 357
327 327 328 331 334 336 341 341 343 2 20 43 67 71 81 164 170 131 155 265 287 289 265 197 271 282 332 67 44 12 61 31 297 340 350 350 49 339 345 80 56 202 141 45 89 262 282 332 48 114 146 21 329 351 4 319 310 46 52 345 320 326 319 298 303 318 314 276 346 339 317 297 120 118 110 101 89 70 49 44 41 40 39 26 14 6 0 357
327 328 329 331 333 338 340 338 357 18 25 53 60 54 66 145 165 152 175 276 264 277 245 180 212 211 143 74 24 32 144 155 288 311 339 357 15 282 59 109 285 235 150 148 243 260 271 342 21 167 78 48 3 340 11 339 300 288 111 357 311 305 304 303 311 325 319 295 48 15 332 283 97 110 137 124 73 52 36 31 29 27 26 15 7 2 358 355
327 329 331 330 331 339 340 339 3 5 21 71 37 29 56 98 161 162 159 293 238 232 139 162 192 168 156 26 14 82 176 169 334 317 345 3 352 266 167 193 320 5 167 200 287 274 281 56 37 61 49 29 358 327 27 334 287 286 113 313 297 296 304 309 317 329 309 296 8 25 306 269 318 79 132 116 74 55 34 30 26 19 15 7 3 0 357 354
327 329 331 330 333 340 342 322 329 352 29 61 353 10 6 100 160 167 250 292 226 176 148 188 211 161 173 339 348 216 224 37 272 328 15 1 349 205 263 244 194 103 145 233 286 238 148 114 68 45 33 350 316 306 33 338 270 289 16 308 297 303 307 310 315 304 284 300 311 259 234 266 301 118 130 110 68 41 24 23 18 11 7 2 0 359 356 354
326 329 333 334 336 341 345 301 311 4 97 281 324 5 9 123 155 169 302 294 232 138 145 86 126 93 69 155 155 203 354 9 247 240 20 1 12 176 255 266 201 155 117 231 273 5 106 82 47 16 333 306 297 22 15 299 229 334 345 291 275 292 297 297 298 288 289 316 302 255 207 258 282 149 123 96 49 21 14 12 8 6 3 359 356 355 354 353
325 328 335 337 337 341 338 314 309 257 230 282 333 19 101 135 161 182 343 264 250 109 85 72 149 76 5 206 159 54 53 72 322 334 349 17 30 37 251 43 116 116 103 247 265 5 66 9 18 298 268 263 115 84 21 31 111 328 314 268 262 281 285 278 274 288 304 295 283 280 151 268 281 258 102 77 52 14 3 3 4 1 357 356 355 354 353 351
323 327 335 338 338 332 315 307 262 187 292 300 24 98 128 146 196 287 253 245 280 122 141 288 217 349 340 244 233 51 173 235 341 338 344 102 26 36 86 360 102 142 114 293 266 305 36 353 294 272 319 52 116 121 54 38 314 292 299 310 307 294 280 270 272 294 295 270 265 178 103 340 295 271 55 72 64 18 2 360 358 355 354 356 356 353 349 344
321 326 334 336 332 319 307 289 203 193 302 309 89 121 150 165 263 234 242 251 74 173 163 103 295 25 44 237 256 96 127 319 334 328 21 119 6 43 113 219 199 180 215 194 214 291 87 148 169 36 7 65 127 159 173 205 264 279 4 352 329 305 272 256 259 180 234 281 174 144 99 315 276 251 99 102 67 27 12 2 356 356 355 353 350 345 340 338
320 326 332 333 328 309 272 232 238 275 110 72 85 155 203 310 245 217 233 49 152 243 170 131 342 51 77 102 255 232 110 263 360 40 62 72 353 50 286 251 187 264 262 188 185 298 131 126 16 350 34 67 208 207 188 188 306 19 28 6 336 321 316 286 284 250 264 269 152 142 13 306 269 251 122 117 58 26 12 6 360 357 350 344 341 336 334 334
318 326 328 325 316 289 249 234 246 228 132 97 103 224 74 294 247 219 202 239 273 44 71 77 53 71 85 279 250 161 157 230 155 91 115 159 232 193 256 259 217 269 266 156 343 267 190 120 284 235 136 22 247 218 245 250 38 34 32 16 345 330 321 300 306 312 290 270 167 178 340 284 268 217 134 108 47 19 9 9 1 350 340 335 334 329 329 329
318 323 320 315 295 272 232 216 215 163 136 128 190 258 118 236 251 195 216 247 295 32 60 85 83 109 203 252 276 184 236 238 119 113 180 170 218 213 208 220 213 228 200 205 247 227 237 235 185 183 161 10 28 41 3 32 59 64 90 15 293 285 285 288 318 328 305 304 282 241 216 248 286 139 139 114 39 12 6 4 351 339 333 332 329 325 327 326
314 316 312 298 275 259 196 196 191 155 159 168 165 208 221 237 245 216 235 253 312 286 89 129 153 280 242 223 276 243 241 251 93 156 217 194 220 215 184 191 196 190 161 191 207 157 243 260 72 66 348 22 62 58 4 50 101 100 122 249 257 224 261 276 309 313 290 301 295 224 202 242 88 126 138 102 8 5 0 349 337 333 331 331 327 325 327 324
307 309 302 274 260 236 183 188 177 159 173 161 169 217 225 237 216 195 199 132 140 149 109 253 197 238 265 223 177 186 196 224 126 223 218 216 237 216 172 159 176 200 202 197 170 155 238 250 94 103 60 38 15 89 38 347 11 131 211 267 96 97 267 276 281 197 252 280 279 254 273 281 143 135 132 27 358 354 346 336 333 331 331 331 328 328 329 326
294 294 275 259 257 211 181 180 165 159 168 153 206 231 230 231 213 194 161 124 87 115 113 285 212 200 263 258 200 180 167 212 207 201 218 220 235 176 160 178 175 191 268 302 196 148 274 222 158 151 91 62 334 83 77 17 350 194 264 352 91 145 147 150 271 297 282 272 269 278 285 287 285 229 110 6 350 345 338 335 332 331 334 331 329 331 331 328
280 280 264 255 237 190 177 175 164 158 133 172 225 242 222 204 213 184 149 133 104 133 172 246 224 189 238 255 231 155 162 198 165 169 234 214 218 145 145 177 181 160 333 326 251 88 309 240 183 126 106 122 280 71 92 52 28 19 293 37 62 233 180 138 180 298 289 281 282 291 295 294 282 293 9 346 345 343 338 335 331 331 333 330 329 331 330 329
250 271 280 227 188 177 173 167 157 147 176 202 226 242 212 210 231 178 164 154 125 150 198 231 228 215 204 211 240 157 179 202 161 164 225 206 213 145 142 170 169 152 12 360 207 132 242 247 194 126 123 140 216 235 181 142 96 90 148 144 235 276 204 186 156 271 270 274 282 299 314 313 186 82 350 336 345 343 334 332 329 328 328 327 328 329 329 329
207 249 283 172 168 170 163 153 144 158 216 212 223 228 182 225 235 195 198 195 167 194 220 214 209 228 223 195 230 212 203 217 181 186 213 201 242 178 162 160 148 148 105 104 196 157 147 236 208 139 151 209 194 185 207 188 155 172 190 187 186 147 156 222 231 174 238 263 268 289 296 279 134 57 341 333 343 338 331 327 323 323 325 326 327 328 329 328
164 243 224 168 167 159 147 144 165 190 215 233 238 225 199 212 199 188 215 222 221 236 242 205 205 223 228 223 232 191 189 222 192 200 222 201 227 214 172 137 145 150 140 140 177 211 166 200 196 168 199 222 180 52 307 259 227 215 214 192 168 147 145 258 258 163 170 241 237 266 280 277 263 357 323 335 337 331 328 323 320 323 326 325 326 328 328 325
167 239 183 161 164 157 152 189 189 155 232 230 231 225 187 176 184 181 175 173 241 252 226 224 221 219 216 228 231 172 172 221 188 191 232 206 202 229 141 114 127 141 143 139 137 113 93 114 207 215 209 196 15 9 321 260 208 195 207 163 150 154 157 229 264 243 200 230 221 247 271 278 114 123 332 340 332 325 324 322 323 325 325 325 327 327 325 320
201 199 150 162 168 162 175 230 188 197 243 235 280 247 171 172 189 176 168 175 202 203 204 219 201 209 222 216 210 183 179 215 191 179 212 206 169 99 134 136 129 129 135 138 142 142 110 120 194 224 159 99 61 44 49 40 124 153 171 164 169 182 181 229 265 274 275 247 226 242 261 257 125 87 339 331 325 322 324 325 325 325 324 325 326 326 323 318
211 160 126 171 177 172 197 226 209 222 227 228 260 234 190 227 201 178 183 194 190 174 193 216 195 210 224 193 188 195 181 204 211 186 178 177 144 91 120 141 142 144 149 162 167 166 172 160 160 232 256 186 144 139 129 180 214 208 204 185 190 194 183 235 258 250 262 239 217 230 257 257 256 340 322 320 322 323 325 325 325 326 325 325 327 325 321 319
193 160 94 169 184 190 223 236 227 241 227 222 241 225 204 230 212 198 202 200 190 177 185 211 190 198 194 149 189 207 194 216 231 190 137 139 137 96 106 120 93 115 122 115 137 162 205 193 174 231 255 247 251 246 161 180 206 213 203 190 194 193 186 207 236 229 243 233 213 224 253 273 291 308 312 317 324 325 325 325 324 327 326 324 326 324 321 320
190 209 143 128 194 216 245 279 233 250 233 222 248 230 207 217 222 206 209 205 193 183 187 205 140 142 141 164 203 216 207 217 225 161 159 147 146 160 136 123 99 121 145 112 111 118 150 207 213 226 239 246 262 290 108 140 221 233 222 206 196 194 197 204 213 227 244 261 251 243 253 277 290 302 311 319 326 327 327 325 323 329 329 324 324 322 319 319
203 218 172 150 200 220 229 237 219 239 236 215 225 223 209 219 225 195 194 205 194 175 179 186 168 183 192 185 201 218 195 192 188 166 166 144 122 76 96 111 120 210 202 154 139 144 144 211 220 226 240 251 273 291 139 173 249 252 251 243 216 197 190 188 209 238 252 270 268 263 269 278 287 302 312 318 327 329 327 322 321 330 329 320 320 320 319 320
200 214 176 169 203 216 215 212 203 218 230 219 221 234 227 225 224 210 194 188 174 177 192 217 203 205 205 185 183 196 168 187 217 177 139 133 130 124 127 148 202 200 176 162 180 172 190 239 217 216 244 249 265 278 244 223 254 255 255 259 245 216 194 187 212 236 244 251 259 275 287 284 289 303 310 318 328 327 324 318 318 325 323 317 320 323 323 325
195 251 239 184 225 229 208 187 182 203 221 217 225 235 233 230 228 218 165 133 202 205 206 222 216 206 206 189 179 196 186 188 212 183 151 145 149 155 165 176 180 171 155 148 171 191 195 234 197 208 257 244 232 257 254 237 249 255 254 258 256 243 229 218 223 234 241 248 253 268 279 280 289 303 310 319 323 322 319 312 316 323 320 318 324 328 327 328
188 209 202 183 248 239 225 184 173 195 218 216 226 232 227 232 231 221 152 182 208 202 201 222 220 197 198 194 195 214 207 187 185 172 159 157 164 174 184 168 148 152 160 152 162 217 221 161 136 165 268 239 218 238 247 238 243 256 262 261 258 252 248 242 237 237 244 252 259 270 277 279 293 310 315 318 317 319 318 312 317 322 317 319 328 331 329 328
207 207 182 170 243 218 211 204 180 203 223 214 222 229 225 231 230 219 209 214 214 197 191 211 213 177 174 201 210 222 210 166 147 158 166 177 181 173 176 163 147 149 165 170 164 198 215 196 119 141 262 240 193 213 233 227 242 258 266 267 258 246 243 238 229 229 241 260 274 281 282 288 312 321 320 318 318 321 320 317 321 320 318 326 332 329 327 327
205 207 177 180 241 224 211 205 188 212 232 218 216 224 226 232 225 210 219 224 203 200 196 193 184 150 172 210 215 213 152 112 102 110 149 161 125 112 136 151 150 150 159 168 173 182 189 193 159 171 258 240 148 165 189 172 248 258 257 259 247 231 235 235 227 229 238 256 275 281 285 301 319 324 322 320 320 321 321 322 320 314 318 329 330 323 322 324